Time,TemperatureF,DewpointF,PressureIn,WindDirection,WindDirectionDegrees,WindSpeedMPH,WindSpeedGustMPH,Humidity,HourlyPrecipIn,Conditions,Clouds,dailyrainin,SoftwareType,DateUTC
2013-02-09 00:00:00,27.3,23.9,30.37,NW,315,0.0,0.0,87,0.00,,,0.00,WUHU21623XXSP,2013-02-09 06:00:00,
2013-02-09 00:05:00,27.3,23.9,30.37,NW,315,0.0,0.0,87,0.00,,,0.00,WUHU21623XXSP,2013-02-09 06:05:00,
2013-02-09 00:10:00,27.3,23.9,30.37,NW,315,0.0,0.0,87,0.00,,,0.00,WUHU21623XXSP,2013-02-09 06:10:00,
2013-02-09 00:15:00,27.3,24.1,30.37,NW,315,0.0,0.0,87,0.00,,,0.00,WUHU21623XXSP,2013-02-09 06:15:00,
2013-02-09 00:20:00,27.5,24.1,30.37,NW,315,0.0,0.0,87,0.00,,,0.00,WUHU21623XXSP,2013-02-09 06:20:00,
2013-02-09 00:25:00,27.5,24.1,30.36,NW,315,0.0,0.0,87,0.00,,,0.00,WUHU21623XXSP,2013-02-09 06:25:00,
2013-02-09 00:30:00,27.5,24.1,30.36,NW,315,0.0,0.0,87,0.00,,,0.00,WUHU21623XXSP,2013-02-09 06:30:00,
2013-02-09 00:35:00,27.5,24.1,30.36,NW,315,0.0,0.0,87,0.00,,,0.00,WUHU21623XXSP,2013-02-09 06:35:00,
2013-02-09 00:40:00,27.5,24.1,30.36,NW,315,0.0,0.0,87,0.00,,,0.00,WUHU21623XXSP,2013-02-09 06:40:00,
2013-02-09 00:45:00,27.5,24.1,30.36,NW,315,0.0,0.0,87,0.00,,,0.00,WUHU21623XXSP,2013-02-09 06:45:00,
2013-02-09 00:50:00,27.5,24.1,30.36,NW,315,0.0,0.0,87,0.00,,,0.00,WUHU21623XXSP,2013-02-09 06:50:00,
2013-02-09 00:56:00,27.5,24.1,30.36,NW,315,0.0,0.0,87,0.00,,,0.00,WUHU21623XXSP,2013-02-09 06:56:00,
2013-02-09 01:01:00,27.5,24.1,30.36,NW,315,0.0,0.0,87,0.00,,,0.00,WUHU21623XXSP,2013-02-09 07:01:00,
2013-02-09 01:06:00,27.5,24.1,30.35,NW,315,0.0,0.0,87,0.00,,,0.00,WUHU21623XXSP,2013-02-09 07:06:00,
2013-02-09 01:11:00,27.5,24.1,30.35,NW,315,0.0,0.0,87,0.00,,,0.00,WUHU21623XXSP,2013-02-09 07:11:00,
2013-02-09 01:16:00,27.5,24.1,30.35,NW,315,0.0,0.0,87,0.00,,,0.00,WUHU21623XXSP,2013-02-09 07:16:00,
2013-02-09 01:21:00,27.5,24.1,30.35,NW,315,0.0,0.0,87,0.00,,,0.00,WUHU21623XXSP,2013-02-09 07:21:00,
2013-02-09 01:26:00,27.7,24.3,30.36,NW,315,0.0,0.0,87,0.00,,,0.00,WUHU21623XXSP,2013-02-09 07:26:00,
2013-02-09 01:31:00,27.7,24.3,30.36,NW,315,0.0,0.0,87,0.00,,,0.00,WUHU21623XXSP,2013-02-09 07:31:00,
2013-02-09 01:37:00,27.7,24.3,30.36,NW,315,0.0,0.0,87,0.00,,,0.00,WUHU21623XXSP,2013-02-09 07:37:00,
2013-02-09 01:42:00,27.7,24.3,30.36,NW,315,0.0,0.0,87,0.00,,,0.00,WUHU21623XXSP,2013-02-09 07:42:00,
2013-02-09 01:47:00,27.7,24.3,30.37,NW,315,0.0,0.0,87,0.00,,,0.00,WUHU21623XXSP,2013-02-09 07:47:00,
2013-02-09 01:52:00,28.0,24.7,30.37,NW,315,0.0,0.0,87,0.00,,,0.00,WUHU21623XXSP,2013-02-09 07:52:00,
2013-02-09 01:57:00,28.0,24.7,30.37,NW,315,0.0,0.0,87,0.00,,,0.00,WUHU21623XXSP,2013-02-09 07:57:00,
2013-02-09 02:02:00,28.2,24.7,30.37,NW,315,0.0,0.0,87,0.00,,,0.00,WUHU21623XXSP,2013-02-09 08:02:00,
2013-02-09 02:07:00,28.2,24.5,30.36,NW,315,0.0,0.0,86,0.00,,,0.00,WUHU21623XXSP,2013-02-09 08:07:00,
2013-02-09 02:12:00,28.2,24.3,30.37,NW,315,0.0,0.0,85,0.00,,,0.00,WUHU21623XXSP,2013-02-09 08:12:00,
2013-02-09 02:17:00,28.6,24.6,30.36,NW,315,0.0,0.0,85,0.00,,,0.00,WUHU21623XXSP,2013-02-09 08:17:00,
2013-02-09 02:22:00,28.6,24.6,30.37,NW,315,0.0,0.0,85,0.00,,,0.00,WUHU21623XXSP,2013-02-09 08:22:00,
2013-02-09 02:27:00,28.6,24.6,30.37,NW,315,0.0,0.0,85,0.00,,,0.00,WUHU21623XXSP,2013-02-09 08:27:00,
2013-02-09 02:32:00,28.6,24.3,30.37,NW,315,0.0,0.0,84,0.00,,,0.00,WUHU21623XXSP,2013-02-09 08:32:00,
2013-02-09 02:37:00,28.6,24.3,30.37,NW,315,0.0,0.0,84,0.00,,,0.00,WUHU21623XXSP,2013-02-09 08:37:00,
2013-02-09 02:42:00,28.6,24.3,30.36,NW,315,0.0,0.0,84,0.00,,,0.00,WUHU21623XXSP,2013-02-09 08:42:00,
2013-02-09 02:47:00,28.6,24.0,30.36,NW,315,0.0,0.0,83,0.00,,,0.00,WUHU21623XXSP,2013-02-09 08:47:00,
2013-02-09 02:52:00,28.6,24.0,30.36,NW,315,0.0,0.0,83,0.00,,,0.00,WUHU21623XXSP,2013-02-09 08:52:00,
2013-02-09 02:57:00,28.6,23.8,30.36,NW,315,0.0,0.0,82,0.00,,,0.00,WUHU21623XXSP,2013-02-09 08:57:00,
2013-02-09 03:02:00,28.8,23.9,30.36,NW,315,0.0,0.0,82,0.00,,,0.00,WUHU21623XXSP,2013-02-09 09:02:00,
2013-02-09 03:07:00,28.8,23.6,30.36,NW,315,0.0,0.0,81,0.00,,,0.00,WUHU21623XXSP,2013-02-09 09:07:00,
2013-02-09 03:12:00,28.8,23.6,30.37,NW,315,0.0,0.0,81,0.00,,,0.00,WUHU21623XXSP,2013-02-09 09:12:00,
2013-02-09 03:17:00,28.8,23.6,30.36,NW,315,0.0,0.0,81,0.00,,,0.00,WUHU21623XXSP,2013-02-09 09:17:00,
2013-02-09 03:23:00,28.8,23.4,30.36,NW,315,0.0,0.0,80,0.00,,,0.00,WUHU21623XXSP,2013-02-09 09:23:00,
2013-02-09 03:28:00,28.8,22.7,30.36,NW,315,0.0,0.0,78,0.00,,,0.00,WUHU21623XXSP,2013-02-09 09:28:00,
2013-02-09 03:33:00,28.8,22.7,30.35,NW,315,0.0,0.0,78,0.00,,,0.00,WUHU21623XXSP,2013-02-09 09:33:00,
2013-02-09 03:38:00,28.8,22.7,30.35,NW,315,0.0,0.0,78,0.00,,,0.00,WUHU21623XXSP,2013-02-09 09:38:00,
2013-02-09 03:43:00,28.8,22.7,30.35,NW,315,0.0,0.0,78,0.00,,,0.00,WUHU21623XXSP,2013-02-09 09:43:00,
2013-02-09 03:48:00,28.8,22.7,30.35,NW,315,0.0,0.0,78,0.00,,,0.00,WUHU21623XXSP,2013-02-09 09:48:00,
2013-02-09 03:53:00,28.8,22.7,30.35,NW,315,0.0,0.0,78,0.00,,,0.00,WUHU21623XXSP,2013-02-09 09:53:00,
2013-02-09 03:58:00,28.8,22.7,30.35,NW,315,0.0,0.0,78,0.00,,,0.00,WUHU21623XXSP,2013-02-09 09:58:00,
2013-02-09 04:03:00,28.8,22.7,30.35,NW,315,0.0,0.0,78,0.00,,,0.00,WUHU21623XXSP,2013-02-09 10:03:00,
2013-02-09 04:08:00,28.8,22.7,30.36,NW,315,0.0,0.0,78,0.00,,,0.00,WUHU21623XXSP,2013-02-09 10:08:00,
2013-02-09 04:14:00,28.8,22.7,30.35,NW,315,2.5,2.5,78,0.00,,,0.00,WUHU21623XXSP,2013-02-09 10:14:00,
2013-02-09 04:19:00,28.8,22.7,30.36,NW,315,2.5,2.5,78,0.00,,,0.00,WUHU21623XXSP,2013-02-09 10:19:00,
2013-02-09 04:24:00,28.8,22.7,30.36,NW,315,0.0,2.5,78,0.00,,,0.00,WUHU21623XXSP,2013-02-09 10:24:00,
2013-02-09 04:29:00,28.8,22.4,30.36,NW,315,0.0,2.5,77,0.00,,,0.00,WUHU21623XXSP,2013-02-09 10:29:00,
2013-02-09 04:34:00,28.8,22.4,30.36,NW,315,0.0,0.0,77,0.00,,,0.00,WUHU21623XXSP,2013-02-09 10:34:00,
2013-02-09 04:39:00,28.8,22.4,30.36,NW,315,0.0,0.0,77,0.00,,,0.00,WUHU21623XXSP,2013-02-09 10:39:00,
2013-02-09 04:44:00,28.8,22.4,30.37,NW,315,0.0,0.0,77,0.00,,,0.00,WUHU21623XXSP,2013-02-09 10:44:00,
2013-02-09 04:49:00,28.8,22.4,30.37,NW,315,0.0,0.0,77,0.00,,,0.00,WUHU21623XXSP,2013-02-09 10:49:00,
2013-02-09 04:54:00,28.9,22.4,30.37,NW,315,0.0,0.0,77,0.00,,,0.00,WUHU21623XXSP,2013-02-09 10:54:00,
2013-02-09 04:59:00,28.9,22.6,30.37,NW,315,0.0,2.2,77,0.00,,,0.00,WUHU21623XXSP,2013-02-09 10:59:00,
2013-02-09 05:04:00,28.9,22.6,30.37,NW,315,0.0,2.2,77,0.00,,,0.00,WUHU21623XXSP,2013-02-09 11:04:00,
2013-02-09 05:10:00,28.9,22.6,30.37,NW,315,1.6,2.2,77,0.00,,,0.00,WUHU21623XXSP,2013-02-09 11:10:00,
2013-02-09 05:15:00,28.8,22.4,30.36,NW,315,0.0,1.6,77,0.00,,,0.00,WUHU21623XXSP,2013-02-09 11:15:00,
2013-02-09 05:20:00,28.8,22.4,30.37,NW,315,0.0,2.7,77,0.00,,,0.00,WUHU21623XXSP,2013-02-09 11:20:00,
2013-02-09 05:25:00,28.8,22.4,30.37,NW,315,0.0,2.7,77,0.00,,,0.00,WUHU21623XXSP,2013-02-09 11:25:00,
2013-02-09 05:30:00,28.8,22.4,30.37,NW,315,0.0,0.0,77,0.00,,,0.00,WUHU21623XXSP,2013-02-09 11:30:00,
2013-02-09 05:35:00,28.8,22.4,30.36,NW,315,0.0,0.0,77,0.00,,,0.00,WUHU21623XXSP,2013-02-09 11:35:00,
2013-02-09 05:40:00,28.8,22.4,30.36,NW,315,0.0,0.0,77,0.00,,,0.00,WUHU21623XXSP,2013-02-09 11:40:00,
2013-02-09 05:45:00,28.8,22.4,30.37,NW,315,0.0,0.0,77,0.00,,,0.00,WUHU21623XXSP,2013-02-09 11:45:00,
2013-02-09 05:50:00,28.8,22.4,30.37,NW,315,0.0,0.0,77,0.00,,,0.00,WUHU21623XXSP,2013-02-09 11:50:00,
2013-02-09 05:55:00,28.6,22.4,30.37,NW,315,0.0,0.0,77,0.00,,,0.00,WUHU21623XXSP,2013-02-09 11:55:00,
2013-02-09 06:00:00,28.6,22.2,30.36,NW,315,0.0,0.0,77,0.00,,,0.00,WUHU21623XXSP,2013-02-09 12:00:00,
2013-02-09 06:05:00,28.6,22.2,30.37,NW,315,0.0,0.0,77,0.00,,,0.00,WUHU21623XXSP,2013-02-09 12:05:00,
2013-02-09 06:10:00,28.6,22.2,30.37,NW,315,0.0,0.0,77,0.00,,,0.00,WUHU21623XXSP,2013-02-09 12:10:00,
2013-02-09 06:15:00,28.6,22.2,30.36,NW,315,2.9,2.9,77,0.00,,,0.00,WUHU21623XXSP,2013-02-09 12:15:00,
2013-02-09 06:20:00,28.6,22.2,30.35,NW,315,0.0,2.9,77,0.00,,,0.00,WUHU21623XXSP,2013-02-09 12:20:00,
2013-02-09 06:25:00,28.6,22.2,30.36,NW,315,0.0,1.6,77,0.00,,,0.00,WUHU21623XXSP,2013-02-09 12:25:00,
2013-02-09 06:31:00,28.6,22.2,30.36,NW,315,0.0,0.0,77,0.00,,,0.00,WUHU21623XXSP,2013-02-09 12:31:00,
2013-02-09 06:36:00,28.6,22.2,30.37,NW,315,0.0,0.0,77,0.00,,,0.00,WUHU21623XXSP,2013-02-09 12:36:00,
2013-02-09 06:41:00,28.6,22.2,30.37,NW,315,0.0,2.2,77,0.00,,,0.00,WUHU21623XXSP,2013-02-09 12:41:00,
2013-02-09 06:46:00,28.6,22.5,30.37,NW,315,6.3,6.3,78,0.00,,,0.00,WUHU21623XXSP,2013-02-09 12:46:00,
2013-02-09 06:51:00,28.6,22.5,30.37,NW,315,0.0,6.3,78,0.00,,,0.00,WUHU21623XXSP,2013-02-09 12:51:00,
2013-02-09 06:56:00,28.6,22.5,30.37,NW,315,0.0,3.1,78,0.00,,,0.00,WUHU21623XXSP,2013-02-09 12:56:00,
2013-02-09 07:01:00,28.6,22.5,30.37,NW,315,2.7,2.7,78,0.00,,,0.00,WUHU21623XXSP,2013-02-09 13:01:00,
2013-02-09 07:06:00,28.6,22.5,30.37,NW,315,0.0,2.7,78,0.00,,,0.00,WUHU21623XXSP,2013-02-09 13:06:00,
2013-02-09 07:11:00,28.8,22.7,30.37,NW,315,0.0,0.0,78,0.00,,,0.00,WUHU21623XXSP,2013-02-09 13:11:00,
2013-02-09 07:16:00,28.8,22.7,30.36,NW,315,0.0,0.0,78,0.00,,,0.00,WUHU21623XXSP,2013-02-09 13:16:00,
2013-02-09 07:21:00,28.9,22.9,30.36,NW,315,0.0,1.8,78,0.00,,,0.00,WUHU21623XXSP,2013-02-09 13:21:00,
2013-02-09 07:26:00,28.9,22.9,30.36,NW,315,0.0,1.8,78,0.00,,,0.00,WUHU21623XXSP,2013-02-09 13:26:00,
2013-02-09 07:31:00,28.9,22.9,30.35,NW,315,0.0,0.0,78,0.00,,,0.00,WUHU21623XXSP,2013-02-09 13:31:00,
2013-02-09 07:36:00,29.1,23.1,30.36,NW,315,0.0,0.0,78,0.00,,,0.00,WUHU21623XXSP,2013-02-09 13:36:00,
2013-02-09 07:41:00,29.1,23.1,30.36,NW,315,0.0,0.0,78,0.00,,,0.00,WUHU21623XXSP,2013-02-09 13:41:00,
2013-02-09 07:46:00,29.3,23.3,30.37,NW,315,3.1,3.1,78,0.00,,,0.00,WUHU21623XXSP,2013-02-09 13:46:00,
2013-02-09 07:51:00,29.5,23.4,30.37,NW,315,0.0,3.1,78,0.00,,,0.00,WUHU21623XXSP,2013-02-09 13:51:00,
2013-02-09 07:56:00,29.5,23.4,30.36,NW,315,3.1,3.1,78,0.00,,,0.00,WUHU21623XXSP,2013-02-09 13:56:00,
2013-02-09 08:01:00,29.7,23.6,30.36,NW,315,7.2,7.2,78,0.00,,,0.00,WUHU21623XXSP,2013-02-09 14:01:00,
2013-02-09 08:06:00,29.8,23.8,30.36,NW,315,0.0,7.2,78,0.00,,,0.00,WUHU21623XXSP,2013-02-09 14:06:00,
2013-02-09 08:12:00,29.8,23.8,30.36,NW,315,4.7,4.7,78,0.00,,,0.00,WUHU21623XXSP,2013-02-09 14:12:00,
2013-02-09 08:17:00,30.0,23.8,30.35,NW,315,5.8,6.3,78,0.00,,,0.00,WUHU21623XXSP,2013-02-09 14:17:00,
2013-02-09 08:22:00,30.0,24.0,30.36,NW,315,0.0,6.3,78,0.00,,,0.00,WUHU21623XXSP,2013-02-09 14:22:00,
2013-02-09 08:27:00,30.0,24.0,30.36,NW,315,2.2,2.2,78,0.00,,,0.00,WUHU21623XXSP,2013-02-09 14:27:00,
2013-02-09 08:32:00,30.2,23.6,30.36,NW,315,1.8,2.2,77,0.00,,,0.00,WUHU21623XXSP,2013-02-09 14:32:00,
2013-02-09 08:37:00,30.4,23.8,30.35,NW,315,4.3,5.8,77,0.00,,,0.00,WUHU21623XXSP,2013-02-09 14:37:00,
2013-02-09 08:42:00,30.4,24.0,30.35,NW,315,0.0,4.3,77,0.00,,,0.00,WUHU21623XXSP,2013-02-09 14:42:00,
2013-02-09 08:47:00,30.6,24.2,30.35,NW,315,3.8,3.8,77,0.00,,,0.00,WUHU21623XXSP,2013-02-09 14:47:00,
2013-02-09 08:52:00,30.7,24.4,30.35,NW,315,5.8,5.8,77,0.00,,,0.00,WUHU21623XXSP,2013-02-09 14:52:00,
2013-02-09 08:57:00,30.7,24.4,30.35,NW,315,2.2,5.8,77,0.00,,,0.00,WUHU21623XXSP,2013-02-09 14:57:00,
2013-02-09 09:02:00,30.9,24.5,30.35,NW,315,4.7,5.8,77,0.00,,,0.00,WUHU21623XXSP,2013-02-09 15:02:00,
2013-02-09 09:08:00,31.1,24.5,30.35,NW,315,5.8,6.7,77,0.00,,,0.00,WUHU21623XXSP,2013-02-09 15:08:00,
2013-02-09 09:13:00,30.9,24.2,30.35,NW,315,7.6,7.6,76,0.00,,,0.00,WUHU21623XXSP,2013-02-09 15:13:00,
2013-02-09 09:18:00,31.3,24.2,30.36,NW,315,1.1,7.6,76,0.00,,,0.00,WUHU21623XXSP,2013-02-09 15:18:00,
2013-02-09 09:23:00,31.3,24.6,30.35,NW,315,0.0,7.4,76,0.00,,,0.00,WUHU21623XXSP,2013-02-09 15:23:00,
2013-02-09 09:28:00,31.6,24.9,30.36,NW,315,7.6,7.6,76,0.00,,,0.00,WUHU21623XXSP,2013-02-09 15:28:00,
2013-02-09 09:33:00,31.6,24.9,30.36,NW,315,4.9,7.6,76,0.00,,,0.00,WUHU21623XXSP,2013-02-09 15:33:00,
2013-02-09 09:38:00,31.8,25.1,30.35,NW,315,0.0,4.9,76,0.00,,,0.00,WUHU21623XXSP,2013-02-09 15:38:00,
2013-02-09 09:43:00,32.0,25.3,30.36,NW,315,1.1,7.4,76,0.00,,,0.00,WUHU21623XXSP,2013-02-09 15:43:00,
2013-02-09 09:48:00,32.2,25.5,30.36,NW,315,0.0,7.6,76,0.00,,,0.00,WUHU21623XXSP,2013-02-09 15:48:00,
2013-02-09 09:53:00,32.2,25.5,30.35,NW,315,7.4,7.6,76,0.00,,,0.00,WUHU21623XXSP,2013-02-09 15:53:00,
2013-02-09 09:58:00,32.2,25.5,30.35,NW,315,0.0,7.4,76,0.00,,,0.00,WUHU21623XXSP,2013-02-09 15:58:00,
2013-02-09 10:04:00,32.4,25.6,30.35,NW,315,3.1,4.7,76,0.00,,,0.00,WUHU21623XXSP,2013-02-09 16:04:00,
2013-02-09 10:09:00,32.7,25.8,30.36,NW,315,6.9,6.9,76,0.00,,,0.00,WUHU21623XXSP,2013-02-09 16:09:00,
2013-02-09 10:14:00,32.7,26.0,30.35,NW,315,0.0,6.9,76,0.00,,,0.00,WUHU21623XXSP,2013-02-09 16:14:00,
2013-02-09 10:19:00,32.7,26.0,30.35,NW,315,5.8,5.8,76,0.00,,,0.00,WUHU21623XXSP,2013-02-09 16:19:00,
2013-02-09 10:24:00,32.4,25.6,30.35,NW,315,4.3,5.8,76,0.00,,,0.00,WUHU21623XXSP,2013-02-09 16:24:00,
2013-02-09 10:29:00,32.4,25.6,30.35,SSE,157,10.5,10.5,76,0.00,,,0.00,WUHU21623XXSP,2013-02-09 16:29:00,
2013-02-09 10:34:00,32.5,25.8,30.35,SSE,157,4.3,10.5,75,0.00,,,0.00,WUHU21623XXSP,2013-02-09 16:34:00,
2013-02-09 10:39:00,32.7,25.6,30.35,SE,135,3.6,8.3,75,0.00,,,0.00,WUHU21623XXSP,2013-02-09 16:39:00,
2013-02-09 10:44:00,32.7,25.6,30.35,SSE,157,6.3,8.3,75,0.00,,,0.00,WUHU21623XXSP,2013-02-09 16:44:00,
2013-02-09 10:49:00,32.7,25.6,30.36,SSE,157,6.9,6.9,75,0.00,,,0.00,WUHU21623XXSP,2013-02-09 16:49:00,
2013-02-09 10:54:00,33.1,26.0,30.35,SSE,157,6.5,6.9,75,0.00,,,0.00,WUHU21623XXSP,2013-02-09 16:54:00,
2013-02-09 11:00:00,33.4,26.0,30.35,SE,135,6.9,6.9,75,0.00,,,0.00,WUHU21623XXSP,2013-02-09 17:00:00,
2013-02-09 11:05:00,33.1,25.6,30.35,SSE,157,5.6,7.4,74,0.00,,,0.00,WUHU21623XXSP,2013-02-09 17:05:00,
2013-02-09 11:10:00,32.7,25.3,30.35,SSE,157,6.3,7.6,74,0.00,,,0.00,WUHU21623XXSP,2013-02-09 17:10:00,
2013-02-09 11:16:00,32.9,25.8,30.35,SSE,157,6.5,7.6,75,0.00,,,0.00,WUHU21623XXSP,2013-02-09 17:16:00,
2013-02-09 11:21:00,32.9,25.8,30.35,SSE,157,1.3,6.5,75,0.00,,,0.00,WUHU21623XXSP,2013-02-09 17:21:00,
2013-02-09 11:26:00,33.1,26.0,30.34,SSE,157,9.6,9.6,75,0.00,,,0.00,WUHU21623XXSP,2013-02-09 17:26:00,
2013-02-09 11:31:00,32.9,25.8,30.34,South,180,7.6,9.6,75,0.00,,,0.00,WUHU21623XXSP,2013-02-09 17:31:00,
2013-02-09 11:36:00,33.1,26.0,30.33,SSE,157,11.9,11.9,75,0.00,,,0.00,WUHU21623XXSP,2013-02-09 17:36:00,
2013-02-09 11:41:00,33.1,26.1,30.33,SSE,157,1.8,11.9,74,0.00,,,0.00,WUHU21623XXSP,2013-02-09 17:41:00,
2013-02-09 11:46:00,32.9,25.8,30.32,SE,135,5.6,8.7,75,0.00,,,0.00,WUHU21623XXSP,2013-02-09 17:46:00,
2013-02-09 11:51:00,32.7,25.6,30.32,SSE,157,0.0,6.7,75,0.00,,,0.00,WUHU21623XXSP,2013-02-09 17:51:00,
2013-02-09 11:56:00,32.7,25.6,30.32,SE,135,9.2,9.2,75,0.00,,,0.00,WUHU21623XXSP,2013-02-09 17:56:00,
2013-02-09 12:01:00,32.9,25.8,30.32,SE,135,0.0,9.2,75,0.00,,,0.00,WUHU21623XXSP,2013-02-09 18:01:00,
2013-02-09 12:06:00,33.3,26.1,30.32,SE,135,2.7,2.9,75,0.00,,,0.00,WUHU21623XXSP,2013-02-09 18:06:00,
2013-02-09 12:11:00,33.6,26.4,30.31,SSE,157,8.3,8.3,75,0.00,,,0.00,WUHU21623XXSP,2013-02-09 18:11:00,
2013-02-09 12:16:00,33.8,26.6,30.31,South,180,8.1,8.3,75,0.00,,,0.00,WUHU21623XXSP,2013-02-09 18:16:00,
2013-02-09 12:21:00,34.0,26.8,30.31,SSE,157,0.0,8.1,75,0.00,,,0.00,WUHU21623XXSP,2013-02-09 18:21:00,
2013-02-09 12:27:00,33.6,26.4,30.30,South,180,6.9,7.8,75,0.00,,,0.00,WUHU21623XXSP,2013-02-09 18:27:00,
2013-02-09 12:32:00,33.6,26.4,30.30,SSE,157,0.0,7.8,75,0.00,,,0.00,WUHU21623XXSP,2013-02-09 18:32:00,
2013-02-09 12:37:00,34.0,26.8,30.30,SE,135,8.3,8.3,75,0.00,,,0.00,WUHU21623XXSP,2013-02-09 18:37:00,
2013-02-09 12:42:00,34.0,26.8,30.30,SE,135,8.3,8.3,75,0.00,,,0.00,WUHU21623XXSP,2013-02-09 18:42:00,
2013-02-09 12:48:00,33.8,26.6,30.30,SSE,157,14.8,14.8,75,0.00,,,0.00,WUHU21623XXSP,2013-02-09 18:48:00,
2013-02-09 12:53:00,33.8,26.6,30.29,SSE,157,0.0,14.8,75,0.00,,,0.00,WUHU21623XXSP,2013-02-09 18:53:00,
2013-02-09 12:58:00,34.0,26.8,30.29,South,180,8.7,8.7,75,0.00,,,0.00,WUHU21623XXSP,2013-02-09 18:58:00,
2013-02-09 13:03:00,34.3,27.0,30.29,SSE,157,7.2,8.7,75,0.00,,,0.00,WUHU21623XXSP,2013-02-09 19:03:00,
2013-02-09 13:08:00,34.3,27.1,30.29,SSE,157,0.0,7.6,75,0.00,,,0.00,WUHU21623XXSP,2013-02-09 19:08:00,
2013-02-09 13:13:00,34.3,27.1,30.29,SSE,157,6.3,7.6,75,0.00,,,0.00,WUHU21623XXSP,2013-02-09 19:13:00,
2013-02-09 13:18:00,34.3,26.8,30.28,SE,135,6.9,9.2,74,0.00,,,0.00,WUHU21623XXSP,2013-02-09 19:18:00,
2013-02-09 13:23:00,34.3,26.8,30.28,SE,135,7.6,9.2,74,0.00,,,0.00,WUHU21623XXSP,2013-02-09 19:23:00,
2013-02-09 13:28:00,34.3,26.8,30.28,SSE,157,8.9,8.9,74,0.00,,,0.00,WUHU21623XXSP,2013-02-09 19:28:00,
2013-02-09 13:33:00,34.3,26.8,30.28,SSE,157,3.1,8.9,74,0.00,,,0.00,WUHU21623XXSP,2013-02-09 19:33:00,
2013-02-09 13:38:00,34.3,26.8,30.27,SSE,157,4.5,8.9,74,0.00,,,0.00,WUHU21623XXSP,2013-02-09 19:38:00,
2013-02-09 13:43:00,34.7,27.2,30.27,South,180,5.1,7.4,74,0.00,,,0.00,WUHU21623XXSP,2013-02-09 19:43:00,
2013-02-09 13:48:00,34.9,27.2,30.26,South,180,13.4,13.4,74,0.00,,,0.00,WUHU21623XXSP,2013-02-09 19:48:00,
2013-02-09 13:53:00,34.9,27.4,30.26,South,180,9.2,13.4,74,0.00,,,0.00,WUHU21623XXSP,2013-02-09 19:53:00,
2013-02-09 13:58:00,34.9,27.4,30.26,SE,135,7.8,9.8,74,0.00,,,0.00,WUHU21623XXSP,2013-02-09 19:58:00,
2013-02-09 14:03:00,35.2,27.7,30.26,SE,135,5.8,7.8,74,0.00,,,0.00,WUHU21623XXSP,2013-02-09 20:03:00,
2013-02-09 14:08:00,35.4,27.9,30.25,WSW,247,13.2,13.2,74,0.00,,,0.00,WUHU21623XXSP,2013-02-09 20:08:00,
2013-02-09 14:13:00,35.8,28.3,30.25,SSE,157,5.8,13.2,74,0.00,,,0.00,WUHU21623XXSP,2013-02-09 20:13:00,
2013-02-09 14:18:00,36.0,28.3,30.25,WSW,247,4.7,9.4,74,0.00,,,0.00,WUHU21623XXSP,2013-02-09 20:18:00,
2013-02-09 14:23:00,36.1,28.6,30.25,WSW,247,2.2,8.7,74,0.00,,,0.00,WUHU21623XXSP,2013-02-09 20:23:00,
2013-02-09 14:29:00,36.1,28.3,30.24,South,180,4.7,9.4,73,0.00,,,0.00,WUHU21623XXSP,2013-02-09 20:29:00,
2013-02-09 14:34:00,36.3,28.5,30.24,WSW,247,10.1,10.1,73,0.00,,,0.00,WUHU21623XXSP,2013-02-09 20:34:00,
2013-02-09 14:39:00,36.3,28.5,30.24,SSE,157,7.4,10.1,73,0.00,,,0.00,WUHU21623XXSP,2013-02-09 20:39:00,
2013-02-09 14:44:00,36.3,28.1,30.24,SSE,157,7.2,8.9,72,0.00,,,0.00,WUHU21623XXSP,2013-02-09 20:44:00,
2013-02-09 14:49:00,36.0,28.0,30.24,South,180,7.2,8.1,72,0.00,,,0.00,WUHU21623XXSP,2013-02-09 20:49:00,
2013-02-09 14:54:00,35.6,27.9,30.23,SSE,157,8.1,8.1,73,0.00,,,0.00,WUHU21623XXSP,2013-02-09 20:54:00,
2013-02-09 15:00:00,35.8,27.9,30.23,South,180,7.2,8.1,73,0.00,,,0.00,WUHU21623XXSP,2013-02-09 21:00:00,
2013-02-09 15:05:00,36.1,28.4,30.23,South,180,7.2,7.2,74,0.00,,,0.00,WUHU21623XXSP,2013-02-09 21:05:00,
2013-02-09 15:10:00,36.1,28.6,30.23,SSE,157,6.3,7.2,74,0.00,,,0.00,WUHU21623XXSP,2013-02-09 21:10:00,
2013-02-09 15:15:00,36.3,28.8,30.24,SSE,157,6.5,8.7,74,0.00,,,0.00,WUHU21623XXSP,2013-02-09 21:15:00,
2013-02-09 15:20:00,36.0,28.4,30.23,SSE,157,11.9,11.9,74,0.00,,,0.00,WUHU21623XXSP,2013-02-09 21:20:00,
2013-02-09 15:25:00,36.0,28.4,30.23,WSW,247,6.7,11.9,74,0.00,,,0.00,WUHU21623XXSP,2013-02-09 21:25:00,
2013-02-09 15:30:00,36.1,28.6,30.22,WSW,247,7.6,7.6,74,0.00,,,0.00,WUHU21623XXSP,2013-02-09 21:30:00,
2013-02-09 15:35:00,36.7,29.0,30.22,WSW,247,7.4,7.6,74,0.00,,,0.00,WUHU21623XXSP,2013-02-09 21:35:00,
2013-02-09 15:40:00,37.0,29.2,30.22,WSW,247,7.4,7.6,74,0.00,,,0.00,WUHU21623XXSP,2013-02-09 21:40:00,
2013-02-09 15:45:00,37.4,29.9,30.21,WSW,247,5.6,9.2,74,0.00,,,0.00,WUHU21623XXSP,2013-02-09 21:45:00,
2013-02-09 15:52:00,37.4,29.9,30.21,WSW,247,11.4,11.4,74,0.00,,,0.00,WUHU21623XXSP,2013-02-09 21:52:00,
2013-02-09 15:57:00,37.6,30.0,30.21,WSW,247,0.0,11.4,74,0.00,,,0.00,WUHU21623XXSP,2013-02-09 21:57:00,
2013-02-09 16:03:00,37.9,30.4,30.20,SE,135,7.4,8.3,74,0.00,,,0.00,WUHU21623XXSP,2013-02-09 22:03:00,
2013-02-09 16:08:00,37.6,29.7,30.20,SSE,157,6.0,8.3,73,0.00,,,0.00,WUHU21623XXSP,2013-02-09 22:08:00,
2013-02-09 16:13:00,37.6,29.9,30.20,WSW,247,6.0,7.4,73,0.00,,,0.00,WUHU21623XXSP,2013-02-09 22:13:00,
2013-02-09 16:18:00,37.6,30.0,30.20,SE,135,0.0,6.7,74,0.00,,,0.00,WUHU21623XXSP,2013-02-09 22:18:00,
2013-02-09 16:23:00,37.6,29.9,30.20,SSE,157,9.6,9.6,74,0.00,,,0.00,WUHU21623XXSP,2013-02-09 22:23:00,
2013-02-09 16:28:00,37.2,30.0,30.19,SSE,157,3.6,9.6,75,0.00,,,0.00,WUHU21623XXSP,2013-02-09 22:28:00,
2013-02-09 16:35:00,37.0,29.8,30.19,WSW,247,8.3,8.3,75,0.00,,,0.00,WUHU21623XXSP,2013-02-09 22:35:00,
2013-02-09 16:40:00,36.9,29.7,30.19,WSW,247,8.3,8.3,75,0.00,,,0.00,WUHU21623XXSP,2013-02-09 22:40:00,
2013-02-09 16:45:00,36.7,29.5,30.19,SE,135,0.0,8.3,75,0.00,,,0.00,WUHU21623XXSP,2013-02-09 22:45:00,
2013-02-09 16:50:00,36.5,29.6,30.19,SSE,157,3.6,3.6,76,0.00,,,0.00,WUHU21623XXSP,2013-02-09 22:50:00,
2013-02-09 16:55:00,36.3,29.4,30.18,SE,135,5.6,6.7,76,0.00,,,0.00,WUHU21623XXSP,2013-02-09 22:55:00,
2013-02-09 17:00:00,36.1,29.3,30.18,SSE,157,4.3,6.7,76,0.00,,,0.00,WUHU21623XXSP,2013-02-09 23:00:00,
2013-02-09 17:05:00,35.6,28.9,30.18,SSE,157,2.2,4.3,76,0.00,,,0.00,WUHU21623XXSP,2013-02-09 23:05:00,
2013-02-09 17:10:00,35.4,28.9,30.18,SSE,157,7.8,7.8,77,0.00,,,0.00,WUHU21623XXSP,2013-02-09 23:10:00,
2013-02-09 17:15:00,35.2,28.9,30.17,SSE,157,4.9,7.8,77,0.00,,,0.00,WUHU21623XXSP,2013-02-09 23:15:00,
2013-02-09 17:20:00,35.2,28.7,30.17,SE,135,2.5,4.9,77,0.00,,,0.00,WUHU21623XXSP,2013-02-09 23:20:00,
2013-02-09 17:25:00,34.9,28.8,30.17,SE,135,0.0,2.5,78,0.00,,,0.00,WUHU21623XXSP,2013-02-09 23:25:00,
2013-02-09 17:30:00,34.7,28.8,30.17,SE,135,1.6,5.6,79,0.00,,,0.00,WUHU21623XXSP,2013-02-09 23:30:00,
2013-02-09 17:36:00,34.5,28.6,30.17,SSE,157,0.0,5.6,79,0.00,,,0.00,WUHU21623XXSP,2013-02-09 23:36:00,
2013-02-09 17:41:00,34.3,28.4,30.17,SSE,157,1.8,1.8,79,0.00,,,0.00,WUHU21623XXSP,2013-02-09 23:41:00,
2013-02-09 17:46:00,34.0,28.4,30.17,SSE,157,0.0,1.8,80,0.00,,,0.00,WUHU21623XXSP,2013-02-09 23:46:00,
2013-02-09 17:51:00,34.0,28.4,30.17,SE,135,2.5,2.5,80,0.00,,,0.00,WUHU21623XXSP,2013-02-09 23:51:00,
2013-02-09 17:56:00,33.8,28.2,30.17,SE,135,0.0,2.5,80,0.00,,,0.00,WUHU21623XXSP,2013-02-09 23:56:00,
2013-02-09 18:01:00,33.6,28.3,30.17,SE,135,0.0,2.0,81,0.00,,,0.00,WUHU21623XXSP,2013-02-10 00:01:00,
2013-02-09 18:06:00,33.6,28.2,30.17,SE,135,0.0,2.0,81,0.00,,,0.00,WUHU21623XXSP,2013-02-10 00:06:00,
2013-02-09 18:11:00,33.3,28.0,30.17,SE,135,0.0,1.6,81,0.00,,,0.00,WUHU21623XXSP,2013-02-10 00:11:00,
2013-02-09 18:16:00,33.1,27.9,30.16,SE,135,2.5,2.5,81,0.00,,,0.00,WUHU21623XXSP,2013-02-10 00:16:00,
2013-02-09 18:21:00,33.1,27.9,30.16,SSE,157,4.9,4.9,81,0.00,,,0.00,WUHU21623XXSP,2013-02-10 00:21:00,
2013-02-09 18:26:00,33.1,28.1,30.16,SSE,157,1.3,4.9,82,0.00,,,0.00,WUHU21623XXSP,2013-02-10 00:26:00,
2013-02-09 18:31:00,33.1,28.1,30.16,SE,135,4.0,4.9,82,0.00,,,0.00,WUHU21623XXSP,2013-02-10 00:31:00,
2013-02-09 18:36:00,33.1,28.1,30.16,SE,135,2.2,4.0,82,0.00,,,0.00,WUHU21623XXSP,2013-02-10 00:36:00,
2013-02-09 18:41:00,33.1,28.1,30.15,SE,135,0.0,4.3,82,0.00,,,0.00,WUHU21623XXSP,2013-02-10 00:41:00,
2013-02-09 18:46:00,33.1,28.1,30.15,SE,135,7.6,7.6,82,0.00,,,0.00,WUHU21623XXSP,2013-02-10 00:46:00,
2013-02-09 18:51:00,33.1,28.1,30.15,SE,135,7.6,7.6,82,0.00,,,0.00,WUHU21623XXSP,2013-02-10 00:51:00,
2013-02-09 18:56:00,33.1,28.1,30.15,SSE,157,6.9,7.6,82,0.00,,,0.00,WUHU21623XXSP,2013-02-10 00:56:00,
2013-02-09 19:01:00,33.1,28.1,30.15,SE,135,7.6,7.6,82,0.00,,,0.00,WUHU21623XXSP,2013-02-10 01:01:00,
2013-02-09 19:06:00,33.1,28.1,30.15,SE,135,7.6,7.6,82,0.00,,,0.00,WUHU21623XXSP,2013-02-10 01:06:00,
2013-02-09 19:11:00,33.3,28.6,30.15,SE,135,1.6,7.6,83,0.00,,,0.00,WUHU21623XXSP,2013-02-10 01:11:00,
2013-02-09 19:16:00,33.6,28.8,30.15,SE,135,6.7,6.7,83,0.00,,,0.00,WUHU21623XXSP,2013-02-10 01:16:00,
2013-02-09 19:21:00,33.6,28.9,30.15,SSE,157,3.8,6.7,83,0.00,,,0.00,WUHU21623XXSP,2013-02-10 01:21:00,
2013-02-09 19:26:00,34.0,29.1,30.15,SE,135,6.0,6.3,83,0.00,,,0.00,WUHU21623XXSP,2013-02-10 01:26:00,
2013-02-09 19:31:00,34.0,29.3,30.15,SSE,157,8.9,8.9,83,0.00,,,0.00,WUHU21623XXSP,2013-02-10 01:31:00,
2013-02-09 19:36:00,34.3,29.6,30.15,SE,135,7.6,8.9,83,0.00,,,0.00,WUHU21623XXSP,2013-02-10 01:36:00,
2013-02-09 19:41:00,34.3,29.3,30.14,SE,135,7.6,8.9,82,0.00,,,0.00,WUHU21623XXSP,2013-02-10 01:41:00,
2013-02-09 19:46:00,34.3,29.0,30.14,SE,135,7.6,8.9,81,0.00,,,0.00,WUHU21623XXSP,2013-02-10 01:46:00,
2013-02-09 19:52:00,34.3,29.0,30.15,SE,135,6.9,7.6,81,0.00,,,0.00,WUHU21623XXSP,2013-02-10 01:52:00,
2013-02-09 19:57:00,34.3,29.0,30.14,SE,135,6.3,7.6,81,0.00,,,0.00,WUHU21623XXSP,2013-02-10 01:57:00,
2013-02-09 20:02:00,34.3,29.0,30.14,SSE,157,5.6,7.6,81,0.00,,,0.00,WUHU21623XXSP,2013-02-10 02:02:00,
2013-02-09 20:07:00,34.3,28.8,30.14,SE,135,4.3,7.6,80,0.00,,,0.00,WUHU21623XXSP,2013-02-10 02:07:00,
2013-02-09 20:12:00,34.3,28.8,30.14,SE,135,8.3,8.3,80,0.00,,,0.00,WUHU21623XXSP,2013-02-10 02:12:00,
2013-02-09 20:17:00,34.3,28.8,30.14,SE,135,6.7,8.3,80,0.00,,,0.00,WUHU21623XXSP,2013-02-10 02:17:00,
2013-02-09 20:22:00,34.3,28.8,30.13,SE,135,6.7,6.7,80,0.00,,,0.00,WUHU21623XXSP,2013-02-10 02:22:00,
2013-02-09 20:27:00,34.3,28.8,30.14,SSE,157,6.9,6.9,80,0.00,,,0.00,WUHU21623XXSP,2013-02-10 02:27:00,
2013-02-09 20:32:00,34.3,28.8,30.13,SE,135,7.8,7.8,80,0.00,,,0.00,WUHU21623XXSP,2013-02-10 02:32:00,
2013-02-09 20:37:00,34.3,28.8,30.13,SE,135,9.4,9.8,80,0.00,,,0.00,WUHU21623XXSP,2013-02-10 02:37:00,
2013-02-09 20:42:00,34.3,28.8,30.13,SE,135,1.3,9.8,80,0.00,,,0.00,WUHU21623XXSP,2013-02-10 02:42:00,
2013-02-09 20:47:00,34.3,28.8,30.14,SSE,157,6.7,9.4,80,0.00,,,0.00,WUHU21623XXSP,2013-02-10 02:47:00,
2013-02-09 20:52:00,34.3,28.8,30.13,SE,135,5.4,6.7,80,0.00,,,0.00,WUHU21623XXSP,2013-02-10 02:52:00,
2013-02-09 20:57:00,34.3,28.8,30.13,SSE,157,8.5,8.5,80,0.00,,,0.00,WUHU21623XXSP,2013-02-10 02:57:00,
2013-02-09 21:02:00,34.3,28.8,30.12,SE,135,6.9,8.7,80,0.00,,,0.00,WUHU21623XXSP,2013-02-10 03:02:00,
2013-02-09 21:07:00,34.3,28.8,30.13,SE,135,6.9,8.7,80,0.00,,,0.00,WUHU21623XXSP,2013-02-10 03:07:00,
2013-02-09 21:12:00,34.3,28.8,30.13,SE,135,10.1,10.1,80,0.00,,,0.00,WUHU21623XXSP,2013-02-10 03:12:00,
2013-02-09 21:18:00,34.3,28.8,30.13,SE,135,8.7,10.1,80,0.00,,,0.00,WUHU21623XXSP,2013-02-10 03:18:00,
2013-02-09 21:23:00,34.2,28.6,30.13,SSE,157,9.2,9.2,80,0.00,,,0.00,WUHU21623XXSP,2013-02-10 03:23:00,
2013-02-09 21:28:00,34.0,28.4,30.12,SE,135,7.2,9.2,80,0.00,,,0.00,WUHU21623XXSP,2013-02-10 03:28:00,
2013-02-09 21:33:00,33.8,28.4,30.12,SE,135,7.8,7.8,80,0.00,,,0.00,WUHU21623XXSP,2013-02-10 03:33:00,
2013-02-09 21:38:00,33.6,28.1,30.12,SSE,157,6.9,7.8,80,0.00,,,0.00,WUHU21623XXSP,2013-02-10 03:38:00,
2013-02-09 21:43:00,33.6,28.1,30.11,SE,135,0.0,6.9,80,0.00,,,0.00,WUHU21623XXSP,2013-02-10 03:43:00,
2013-02-09 21:48:00,33.6,28.1,30.11,SE,135,1.1,7.2,80,0.00,,,0.00,WUHU21623XXSP,2013-02-10 03:48:00,
2013-02-09 21:53:00,33.6,28.1,30.11,South,180,7.2,7.2,80,0.00,,,0.00,WUHU21623XXSP,2013-02-10 03:53:00,
2013-02-09 21:58:00,33.6,28.1,30.11,SSE,157,5.1,7.2,80,0.00,,,0.00,WUHU21623XXSP,2013-02-10 03:58:00,
2013-02-09 22:03:00,33.6,28.1,30.11,SSE,157,7.8,7.8,80,0.00,,,0.00,WUHU21623XXSP,2013-02-10 04:03:00,
2013-02-09 22:08:00,33.6,28.1,30.11,SE,135,0.0,7.8,80,0.00,,,0.00,WUHU21623XXSP,2013-02-10 04:08:00,
2013-02-09 22:13:00,33.6,27.9,30.11,SE,135,0.0,0.4,80,0.00,,,0.00,WUHU21623XXSP,2013-02-10 04:13:00,
2013-02-09 22:18:00,33.6,28.1,30.11,SE,135,6.3,7.6,80,0.00,,,0.00,WUHU21623XXSP,2013-02-10 04:18:00,
2013-02-09 22:23:00,33.6,28.1,30.11,SSE,157,0.0,7.6,80,0.00,,,0.00,WUHU21623XXSP,2013-02-10 04:23:00,
2013-02-09 22:28:00,33.6,28.1,30.11,SE,135,0.0,6.3,80,0.00,,,0.00,WUHU21623XXSP,2013-02-10 04:28:00,
2013-02-09 22:33:00,33.6,28.1,30.11,SE,135,0.0,4.3,80,0.00,,,0.00,WUHU21623XXSP,2013-02-10 04:33:00,
2013-02-09 22:38:00,33.8,28.2,30.11,SE,135,4.5,7.2,80,0.00,,,0.00,WUHU21623XXSP,2013-02-10 04:38:00,
2013-02-09 22:43:00,34.0,28.4,30.10,SE,135,4.5,7.2,80,0.00,,,0.00,WUHU21623XXSP,2013-02-10 04:43:00,
2013-02-09 22:48:00,34.0,28.4,30.10,SSE,157,3.1,6.5,80,0.00,,,0.00,WUHU21623XXSP,2013-02-10 04:48:00,
2013-02-09 22:53:00,34.2,28.6,30.10,SSE,157,5.4,6.5,80,0.00,,,0.00,WUHU21623XXSP,2013-02-10 04:53:00,
2013-02-09 22:58:00,34.2,28.6,30.09,SSE,157,6.9,6.9,80,0.00,,,0.00,WUHU21623XXSP,2013-02-10 04:58:00,
2013-02-09 23:00:00,34.2,28.6,30.09,SSE,157,6.9,6.9,80,0.00,,,0.00,WUHU21623XXSP,2013-02-10 05:00:00,
2013-02-09 23:05:00,34.2,28.6,30.09,SE,135,2.5,6.9,80,0.00,,,0.00,WUHU21623XXSP,2013-02-10 05:05:00,
2013-02-09 23:10:00,34.2,28.6,30.09,SE,135,4.3,4.3,80,0.00,,,0.00,WUHU21623XXSP,2013-02-10 05:10:00,
2013-02-09 23:15:00,34.2,28.6,30.09,SE,135,6.7,6.7,80,0.00,,,0.00,WUHU21623XXSP,2013-02-10 05:15:00,
2013-02-09 23:20:00,34.0,28.4,30.09,SSE,157,6.5,6.7,80,0.00,,,0.00,WUHU21623XXSP,2013-02-10 05:20:00,
2013-02-09 23:25:00,34.0,28.4,30.08,SSE,157,0.0,6.5,80,0.00,,,0.00,WUHU21623XXSP,2013-02-10 05:25:00,
2013-02-09 23:30:00,33.8,28.4,30.08,SE,135,5.8,5.8,80,0.00,,,0.00,WUHU21623XXSP,2013-02-10 05:30:00,
2013-02-09 23:35:00,33.6,28.1,30.09,SE,135,1.6,5.8,80,0.00,,,0.00,WUHU21623XXSP,2013-02-10 05:35:00,
2013-02-09 23:40:00,33.6,28.1,30.09,SE,135,5.4,5.4,80,0.00,,,0.00,WUHU21623XXSP,2013-02-10 05:40:00,
2013-02-09 23:45:00,33.6,28.1,30.08,SSE,157,0.0,5.4,80,0.00,,,0.00,WUHU21623XXSP,2013-02-10 05:45:00,
2013-02-09 23:50:00,33.4,27.9,30.08,SSE,157,6.9,6.9,80,0.00,,,0.00,WUHU21623XXSP,2013-02-10 05:50:00,
2013-02-09 23:55:00,33.4,27.9,30.08,SE,135,0.0,6.9,80,0.00,,,0.00,WUHU21623XXSP,2013-02-10 05:55:00,